Location: Cheching
(60.0667°N, 164.2167°W)
Time: 10:57:24
(UTC+00:00)

UNISAT 6 - Pass Details

Date: 19 January 2021
Orbit: 607 x 687 km, 97.7° (Epoch: 24 February)

Event Time Altitude Azimuth Distance (km) Brightness Sun altitude
Rises 17:35:45 0° 170° (S) 2,865 ? -14.0°
Reaches altitude 10° 17:37:55 10° 173° (S) 1,969 ? -13.7°
Maximum altitude 17:42:11 68° 257° (WSW) 672 ? -13.2°
Drops below altitude 10° 17:46:33 10° 340° (NNW) 2,015 ? -12.7°
Enters shadow 17:47:48 - 342° (NNW) 2,529 ? -12.6°
